Regional Weather Roundup
Issued by NWS Sterling, VA

Home | Current Version | Previous Version | Text Only | Print | Product List | Glossary On
Versions: 1 2 3 4 5 6 7 8 9 10 11 12 13 14 15 16 17 18 19 20 21 22 23 24 25 26 27
000
ASUS41 KLWX 291410
RWRLWX

REGIONAL WEATHER ROUNDUP
NATIONAL WEATHER SERVICE BALTIMORE MD/WASHINGTON DC
1000 AM EDT SUN MAY 29 2016

Note: "FAIR" indicates few or no clouds below 12,000 feet
with no significant weather and/or obstructions to visibility.
 TC=TEMPERATURE CELSIUS

 * =Non NWS site. Station does not report precipitation (e.g. rain,
    snow, etc.), thunder, or fog.

DCZ001-MDZ009-015-VAZ040>042-051-053>054-291500-
WASHINGTON METRO

CITY           SKY/WX    TMP DP  RH WIND       PRES   REMARKS
WASHINGTON NAT PTSUNNY   76  67  73 S8        30.15S
DULLES         PTSUNNY   75  65  70 S3        30.15S
ANDREWS AFB    SUNNY     77  68  73 VRB5      30.14F
FT BELVOIR     FAIR      76  67  72 SW5       30.14F
QUANTICO       FAIR      74  67  78 S6        30.15F
COLLEGE PARK*  FAIR      77  64  65 CALM      30.14S
LEESBURG*      FAIR      79  68  69 S6        30.15F
MANASSAS*      SUNNY     75  70  83 S5        30.14F

$$

MDZ006>007-011-014-291500-
BALTIMORE METRO

CITY           SKY/WX    TMP DP  RH WIND       PRES   REMARKS
BWI AIRPORT    MOSUNNY   78  65  63 SW3       30.14S
MD SCIENCE CTR   N/A     77  64  64 MISG      30.15S
MARTIN STATE   MOSUNNY   75  72  88 SE5       30.17S
ANNAPOLIS      SUNNY     71  67  87 SE10      30.14S
FORT MEADE*    SUNNY     77  64  65 CALM      30.16F

$$

MDZ012-015-019>023-291500-
MARYLAND EASTERN SHORE

CITY           SKY/WX    TMP DP  RH WIND       PRES   REMARKS
OCEAN CITY     CLOUDY   N/A N/A N/A SE5       30.17S
SALISBURY      MOSUNNY   77  70  79 S9        30.16R
BAY BRIDGE AP* MOSUNNY   73  68  83 W5        30.15S
CAMBRIDGE*     SUNNY     77  68  73 SE3       30.15S
EASTON*        SUNNY     73  72  94 CALM      30.19

$$

MDZ017>025-291500-
SOUTHERN MARYLAND

CITY           SKY/WX    TMP DP  RH WIND       PRES   REMARKS
PATUXENT RIVER PTSUNNY   73  68  84 SE8       30.15S
ST INIGOES     PTSUNNY   76  70  82 S6        30.14F
LEONARDTOWN*   MOSUNNY   75  64  69 CALM      30.16S

$$

MDZ003>005-291500-
NORTH CENTRAL MARYLAND

CITY           SKY/WX    TMP DP  RH WIND       PRES   REMARKS
FREDERICK*     SUNNY     75  66  73 CALM      30.17S
HAGERSTOWN APT MOSUNNY   77  63  61 CALM      30.15S
WESTMINSTER*   MOSUNNY   75  72  88 S5        30.16S

$$

MDZ501>502-291500-
WESTERN MARYLAND

CITY           SKY/WX    TMP DP  RH WIND       PRES   REMARKS
OAKLAND*       NOT AVBL
CUMBERLAND*    CLOUDY    73  68  83 CALM      30.18S

$$

VAZ025>031-291500-
SHENANDOAH VALLEY

CITY           SKY/WX    TMP DP  RH WIND       PRES   REMARKS
WINCHESTER*    FAIR      77  63  61 SW3       30.15S
FRONT ROYAL*   FAIR      72  64  78 CALM      30.14F
LURAY*         FAIR      72  66  83 S3        30.16S
NEW MARKET*    FAIR      74  64  72 CALM      30.14F
STAUNTON*      FAIR      74  63  69 S3        30.19S
WAYNESBORO*    FAIR      74  60  61 CALM      30.19R

$$

WVZ021-048>050-054>055-291500-
EASTERN WEST VIRGINIA PANHANDLE

CITY           SKY/WX    TMP DP  RH WIND       PRES   REMARKS
MARTINSBURG    FAIR      75  64  68 VRB3      30.14S
PETERSBURG*    FAIR      72  64  77 CALM      30.16S

$$

VAZ036>039-050-291500-
CENTRAL FOOTHILLS

CITY           SKY/WX    TMP DP  RH WIND       PRES   REMARKS
CHARLOTTESVILL FAIR      76  61  59 CALM      30.15F
CULPEPER*      FAIR      75  67  77 W3        30.16S
ORANGE*        FAIR      77  68  73 SW5       30.16F
GORDONSVILLE*  FAIR      76  67  74 S3        30.14F
WARRENTON*     FAIR      78  63  58 W3        30.14F

$$

VAZ055>057-291500-
NORTH AND CENTRAL PIEDMONT

CITY           SKY/WX    TMP DP  RH WIND       PRES   REMARKS
FREDERICKSBRG* FAIR      77  68  74 CALM      30.13F
STAFFORD*      FAIR      76  66  70 CALM      30.18F

$$

NCZ024-NYZ072-PAZ021-071-VAZ022-071-291500-
OTHER REGIONAL OBSERVATIONS

CITY           SKY/WX    TMP DP  RH WIND       PRES   REMARKS
NEW YORK CITY  SUNNY     79  58  48 CALM      30.17S
PHILADELPHIA   PTSUNNY   76  62  62 SW6       30.16S
PITTSBURGH     CLOUDY    78  66  66 CALM      30.13S
ROANOKE        CLOUDY    70  63  78 W3        30.19F
RICHMOND       PTSUNNY   75  68  78 CALM      30.13F
RALEIGH        CLOUDY    71  70  96 NE8       30.11S FOG

$$

ANZ530>537-291500-
MARINE OBSERVATIONS

STATION/POSITION TIME  TEMP    WIND        PRES
                       AIR SEA DIR/SP/G
                 (UTC) (F)     (DEG/KT/KT) (MB)
THOMAS PT LIGHT  1400   69 67  180/  2/  2 1022.2F
BALT KEY BRIDGE  1300   70     100/  5/  5 1020.8F
COVE POINT       1300   68      30/  2/  4 1021.5F
LEWISETTA        1300   70 65  100/  6/  7 1020.5F
SOLOMONS ISLAND  1300   70 67   90/  6/  6   N/A
PINEY POINT      1306          160/  5/  6   N/A

$$





USA.gov is the U.S. government's official web portal to all federal, state and local government web resources and services.